Regional Weather Roundup
Issued by NWS

Home | Current Version | Previous Version | Graphics & Text | Print | Product List | Glossary Off
Versions: 1 2 3 4 5 6 7 8 9 10 11 12 13 14 15 16 17 18 19 20 21 22 23 24 25 26 27 28 29 30 31 32 33 34 35 36 37 38 39 40 41 42 43 44 45 46 47 48 49 50

000
ASUS43 KMKX 220600
RWRWI

WISCONSIN REGIONAL WEATHER ROUNDUP
NATIONAL WEATHER SERVICE MILWAUKEE/SULLIVAN WI
1200 AM CST MON DEC 22 2014

NOTE: "FAIR" INDICATES FEW OR NO CLOUDS BELOW 12,000 FEET WITH NO
SIGNIFICANT WEATHER AND/OR OBSTRUCTIONS TO VISIBILITY.

WIZ001-002-006>008-014>016-023>028-220700-
NORTHWEST WISCONSIN

CITY           SKY/WX    TMP DP  RH WIND       PRES   REMARKS
SUPERIOR ARPT  CLOUDY    35  34  96 S6        29.75R WCI  30
ASHLAND        CLOUDY    35  33  92 S5        29.78S WCI  31
6HR MIN TEMP:  32; 6HR MAX TEMP:  35; 6HR PCP:  0.01;

HAYWARD        LGT RAIN  35  32  88 S9        29.76S FOG     WCI  28
6HR MIN TEMP:  33; 6HR MAX TEMP:  35; 6HR PCP:  0.05;

SIREN          LGT RAIN  35  35  99 S8        29.75S WCI  29
CUMBERLAND     LGT SNOW  32  32 100 S8        29.76R WCI  25
RICE LAKE      LGT RAIN  35  34  96 SE13      29.79R WCI  26
CHETEK         RAIN      35  34  96 SE8       29.78S WCI  28
LADYSMITH      DRIZZLE   35  35  98 SE10G16   29.81S WCI  28
EAU CLAIRE     CLOUDY    37  34  89 S13       29.80R WCI  29
6HR MIN TEMP:  36; 6HR MAX TEMP:  38; 6HR PCP:  0.02;

MENOMONIE      LGT RAIN  37  36  94 SE10      29.79S WCI  30
NEW RICHMOND   DRIZZLE   35  35 100 SE8       29.75S WCI  29
OSCEOLA        LGT RAIN  37  37 100 SE8       29.76F WCI  30
$$

WIZ003>005-009-010-017-018-220700-
NORTH CENTRAL WISCONSIN

CITY           SKY/WX    TMP DP  RH WIND       PRES   REMARKS
MANITOWISH WTR LGT SNOW  32  32 100 S6        29.80F WCI  26
ARBOR VITAE    LGT SNOW  34  32  94 S9G17     29.82S WCI  27
WOODRUFF       LGT SNOW  34  32  94 S9G17     29.82S WCI  27
RHINELANDER    CLOUDY    32  31  96 S10       29.84S FOG     WCI  24
6HR MIN TEMP:  32; 6HR MAX TEMP:  33; 6HR PCP:  0.03;

EAGLE RIVER    FLURRIES  32  32  99 S8        29.83S WCI  25
LAND O LAKES   CLOUDY    33  32  96 S8        29.83F WCI  26
PHILLIPS       RAIN      33  33 100 S10       29.80S WCI  24
TOMAHAWK       LGT RAIN  32  32  99 S6        29.84S WCI  26
MEDFORD        CLOUDY    32  32  99 S12       29.83S FOG     WCI  23
MERRILL        LGT SNOW  33  33  99 S5        29.86S WCI  29
$$

WIZ029-030-035-036-043>047-220700-
CENTRAL WISCONSIN

CITY           SKY/WX    TMP DP  RH WIND       PRES   REMARKS
WAUSAU         CLOUDY    33  32  96 S15       29.86S FOG     WCI  23
6HR MIN TEMP:  33; 6HR MAX TEMP:  34; 6HR PCP:  0.02;

MOSINEE        CLOUDY    32  32 100 SE12      29.88R FOG     WCI  23
MARSHFIELD     CLOUDY    34  32  92 S13       29.85S FOG     WCI  25
6HR MIN TEMP:  34; 6HR MAX TEMP:  35; 6HR PCP: TRACE;

STEVENS POINT  CLOUDY    32  30  92 S9G18     29.89S FOG     WCI  24
WAUPACA        CLOUDY    37  31  81 S12       29.93F WCI  29
WAUTOMA        NOT AVBL
WISC RAPIDS    CLOUDY    35  30  82 S9        29.89F WCI  28
6HR MIN TEMP:  35; 6HR MAX TEMP:  35; 6HR PCP: TRACE;

CAMP DOUGLAS   CLOUDY    36  36 100 SE13      29.87F WCI  27
$$

WIZ011>013-019>022-031-037>040-048>050-220700-
NORTHEAST WISCONSIN

CITY           SKY/WX    TMP DP  RH WIND       PRES   REMARKS
ANTIGO         CLOUDY    31  31  99 S12       29.88S FOG     WCI  22
SHAWANO        CLOUDY    37  31  80 S8        29.94F WCI  30
OCONTO         CLOUDY    35  31  85 S10G16    29.97F WCI  27
STURGEON BAY   CLOUDY    36  30  80 S17       29.98F WCI  25
6HR MIN TEMP:  36; 6HR MAX TEMP:  37;

GREEN BAY      CLOUDY    36  30  79 S15       29.96F WCI  27
6HR MIN TEMP:  35; 6HR MAX TEMP:  36;

MANITOWOC      NOT AVBL
APPLETON       CLOUDY    34  30  86 S15G21    29.95F WCI  24
CLINTONVILLE   CLOUDY    34  30  86 S10G18    29.93F WCI  26
OSHKOSH        CLOUDY    35  29  78 S10       29.95F WCI  27
6HR MIN TEMP:  35; 6HR MAX TEMP:  36;

$$

WIZ032>034-041-042-053>061-220700-
SOUTHWEST WISCONSIN

CITY           SKY/WX    TMP DP  RH WIND       PRES   REMARKS
LA CROSSE      CLOUDY    38  34  85 S12       29.84F WCI  30
6HR MIN TEMP:  38; 6HR MAX TEMP:  39; 6HR PCP:  0.01;

SPARTA         CLOUDY    36  32  86 S9G17     29.87S WCI  29
VIROQUA        CLOUDY    34  34 100 S13G18    29.84F WCI  25
BOSCOBEL       CLOUDY    37  31  78 VRB6      29.89F HAZE    WCI  32
6HR MIN TEMP:  37; 6HR MAX TEMP:  39;

PRAIRIE DU CHI CLOUDY    37  32  82 SE8       29.87S WCI  30
PLATTEVILLE    CLOUDY    34  32  92 SE14      29.90S WCI  25
$$

WIZ056-057-062-063-064-067-068-220700-
SOUTH CENTRAL WISCONSIN

CITY           SKY/WX    TMP DP  RH WIND       PRES   REMARKS
REEDSBURG      CLOUDY    35  31  87 S8G16     29.90S WCI  28
BARABOO/DELLS  CLOUDY    34  30  86 S15       29.90F WCI  24
LONE ROCK      NOT AVBL
MINERAL POINT  LGT SNOW  34  32  93 SE12      29.89F WCI  25
MADISON        CLOUDY    35  29  78 S16       29.93F WCI  25
6HR MIN TEMP:  35; 6HR MAX TEMP:  37;

MIDDLETON      CLOUDY    36  31  82 S9        29.93F WCI  29
WATERTOWN      CLOUDY    34  32  92 SE6       29.96F WCI  29
MONROE         CLOUDY    34  32  93 S14       29.93S WCI  24
JANESVILLE     CLOUDY    36  32  87 S12       29.97S WCI  27
$$

WIZ051-052-058>065-066-070>072-220700-
SOUTHEAST WISCONSIN

CITY           SKY/WX    TMP DP  RH WIND       PRES   REMARKS
MILWAUKEE      CLOUDY    35  29  78 S10       30.01F WCI  27
6HR MIN TEMP:  35; 6HR MAX TEMP:  37;

WAUKESHA       CLOUDY    32  30  93 SE13      29.99F WCI  22
MILWAUKEE/TIMM CLOUDY    34  30  86 S13       30.01F WCI  25
RACINE         CLOUDY    35  29  78 S15       30.02F WCI  25
6HR MIN TEMP:  35; 6HR MAX TEMP:  38;

BURLINGTON     MOCLDY    32  28  86 SE9       29.99F WCI  24
KENOSHA        CLOUDY    34  29  82 S10       30.00F HAZE    WCI  26
6HR MIN TEMP:  34; 6HR MAX TEMP:  36;

FOND DU LAC    CLOUDY    35  29  78 S10       29.96F WCI  27
6HR MIN TEMP:  35; 6HR MAX TEMP:  36;

SHEBOYGAN      CLOUDY    36  30  79 S14       29.99F WCI  27
6HR MIN TEMP:  35; 6HR MAX TEMP:  36;

WEST BEND      CLOUDY    34  30  86 SE8       29.98F WCI  27
JUNEAU         CLOUDY    33  30  88 SE12      29.97S WCI  25
$$

LSZ147-162-220700-
LAKE SUPERIOR

STATION/POSITION TIME  TEMP    WIND        PRES    WAVE
                       AIR SEA DIR/SP/G            HT/PER
                 (UTC) (F)     (DEG/KT/KT) (MB)    (FT/S)
DEVILS ISLAND    0500   36     160/ 12/ 15 1009.1R
PORT WING        0500   36     170/  5/  8 1008.1S
SAXON HARBOR     0500   38     170/  2/  7 1008.8S
$$

LMZ867-665-643>646-220700-
LAKE MICHIGAN

STATION/POSITION TIME  TEMP    WIND        PRES    WAVE
                       AIR SEA DIR/SP/G            HT/PER
                 (UTC) (F)     (DEG/KT/KT) (MB)    (FT/S)
CHAMBERS ISLAND  0500   37     150/  9/ 15 1015.2F
NORTHPORT PIER   0500   36     150/ 14/ 20 1015.9S
SISTER BAY       0513          180/ 18/ 24   N/A
ALGOMA LAKESHORE 0515          220/ 26/ 30   N/A
KEWAUNEE LAKESHO 0500   37     190/ 19/ 22 1015.2F
SHEBOYGAN LAKESH 0500   38 36  190/ 21/ 24 1016.8F
PORT WASHINGTON  0500   37     190/ 12/ 20 1017.3S
MILWAUKEE LAKESH 0500   37     180/ 17/ 20   N/A
KENOSHA   LAKESH 0500   35     170/ 21/ 24 1016.6S
$$

TC  - TEMPERATURE IN CELSIUS
VSB - VISIBILITY IN STATUTE MILES
WCI - WIND CHILL INDEX
HX  - HEAT INDEX




USA.gov is the U.S. government's official web portal to all federal, state and local government web resources and services.